Mount Holly, NJ

5:27 AM EST on December 16, 2019 (GMT -0500)
South Jersey Regional

Weather History for KVAY - October, 2019

Change the Weather History Date:

Sunday, October 6, 2019

  Actual Average (KPNE) Record (KPNE)
Temperature  
Mean Temperature 60 °F -  
Max Temperature 71 °F 67 °F 87 °F (1997)
Min Temperature 48 °F 47 °F 37 °F (1996)
Degree Days  
Heating Degree Days 6    
Growing Degree Days 10 (Base 50)    
Moisture  
Dew Point 56 °F    
Average Humidity 77    
Maximum Humidity 90    
Minimum Humidity 66    
Precipitation  
Precipitation 0.00 in - - ()
Sea Level Pressure  
Sea Level Pressure 30.28 in    
Wind  
Wind Speed 2 mph (SSE)    
Max Wind Speed 8 mph    
Max Gust Speed -    
Visibility 10 miles    
Events      
Averages and records for this station are not official NWS values.
T = Trace of Precipitation, MM = Missing Value Source: NWS Daily Summary

Daily Weather History Graph

Daily Weather History Graph

Search for Another Location

Airport or City:

Astronomy

Oct. 06, 2019 Rise Set
Actual Time 7:00 AM EDT 6:34 PM EDT
Civil Twilight 6:33 AM EDT 7:01 PM EDT
Nautical Twilight 6:01 AM EDT 7:32 PM EDT
Astronomical Twilight 5:30 AM EDT 8:03 PM EDT
Moon 3:10 PM EDT (10/6) No Moon Set
Length of Visible Light 12h 27m
Length of Day
11h 33m
First Quarter, 59% of the Moon is Illuminated
Oct 6
First Quarter
Oct 13
Full
Oct 21
Last Quarter
Oct 27
New
Nov 4
First Quarter

Hourly Weather History & Observations

Time (EDT) Temp. Dew Point Humidity Pressure Visibility Wind Dir Wind Speed Gust Speed Precip Events Conditions
12:54 AM 50.0 °F 46.0 °F 86% 30.34 in 10.0 mi Calm Calm - N/A   Partly Cloudy
1:54 AM 48.9 °F 46.0 °F 90% 30.33 in 10.0 mi Calm Calm - N/A   Mostly Cloudy
2:54 AM 48.9 °F 46.0 °F 90% 30.33 in 10.0 mi Calm Calm - N/A   Mostly Cloudy
3:54 AM 51.1 °F 48.0 °F 89% 30.31 in 10.0 mi Calm Calm - N/A   Overcast
4:54 AM 53.1 °F 50.0 °F 89% 30.31 in 10.0 mi Calm Calm - N/A   Overcast
5:54 AM 54.0 °F 50.0 °F 86% 30.30 in 10.0 mi Calm Calm - N/A   Overcast
6:54 AM 55.0 °F 52.0 °F 89% 30.30 in 10.0 mi Calm Calm - N/A   Overcast
7:54 AM 59.0 °F 54.0 °F 83% 30.30 in 10.0 mi ESE 3.5 mph - N/A   Overcast
8:54 AM 62.1 °F 55.0 °F 78% 30.31 in 10.0 mi Variable 3.5 mph - N/A   Overcast
9:54 AM 64.9 °F 57.0 °F 75% 30.30 in 10.0 mi Variable 4.6 mph - N/A   Overcast
10:54 AM 68.0 °F 59.0 °F 73% 30.31 in 10.0 mi Variable 5.8 mph - N/A   Overcast
11:54 AM 69.1 °F 60.1 °F 73% 30.30 in 10.0 mi South 8.1 mph - N/A   Overcast
12:54 PM 71.1 °F 60.1 °F 68% 30.29 in 10.0 mi Variable 5.8 mph - N/A   Overcast
1:54 PM 71.1 °F 60.1 °F 68% 30.27 in 10.0 mi Variable 5.8 mph - N/A   Overcast
2:54 PM 71.1 °F 59.0 °F 66% 30.26 in 10.0 mi South 8.1 mph - N/A   Overcast
3:54 PM 71.1 °F 60.1 °F 68% 30.25 in 10.0 mi Variable 4.6 mph - N/A   Overcast
4:54 PM 71.1 °F 60.1 °F 68% 30.25 in 10.0 mi Variable 3.5 mph - N/A   Overcast
5:54 PM 70.0 °F 60.1 °F 71% 30.24 in 10.0 mi Variable 4.6 mph - N/A   Overcast
6:54 PM 70.0 °F 59.0 °F 68% 30.24 in 10.0 mi Variable 5.8 mph - N/A   Overcast
7:54 PM 69.1 °F 59.0 °F 70% 30.23 in 10.0 mi Variable 3.5 mph - N/A   Overcast
8:54 PM 69.1 °F 60.1 °F 73% 30.23 in 10.0 mi Variable 3.5 mph - N/A   Overcast
9:54 PM 69.1 °F 61.0 °F 75% 30.24 in 10.0 mi Variable 3.5 mph - N/A   Overcast
10:54 PM 69.1 °F 61.0 °F 75% 30.24 in 10.0 mi South 5.8 mph - N/A   Overcast
11:54 PM 70.0 °F 60.1 °F 71% 30.23 in 10.0 mi Variable 6.9 mph - N/A   Overcast